Regional Weather Roundup
Issued by NWS Charleston, SC

Current Version | Previous Version | Graphics & Text | Print | Product List | Glossary On
Versions: 1 2 3 4 5 6 7 8 9 10 11 12 13 14 15 16 17 18 19 20 21 22 23 24 25 26 27 28 29 30 31 32 33 34 35 36 37 38 39 40 41 42 43 44 45 46 47 48 49 50
797
ASUS42 KCHS 282028
RWRCHS

REGIONAL WEATHER ROUNDUP
NATIONAL WEATHER SERVICE CHARLESTON SC
400 PM EDT THU JUL 28 2016

NOTE: "FAIR" INDICATES FEW OR NO CLOUDS BELOW 12,000 FEET WITH NO
SIGNIFICANT WEATHER AND/OR OBSTRUCTIONS TO VISIBILITY.

NOT ALL STATIONS ARE QUALITY CONTROLLED. USE DATA WITH CAUTION...
ESPECIALLY DEWPOINT OBSERVATIONS.

SCZ027-030-031-034>040-042>050-282100-
...SOUTHEAST SOUTH CAROLINA...

CITY           SKY/WX    TMP DP  RH WIND       PRES   REMARKS
N CHARLESTON   MOSUNNY   98  70  40 W12G18    29.94F HX 105
WATERFRONT PRK   N/A     90  79  70 S13       29.94F HX 106
MOUNT PLEASANT FAIR      91  79  66 S13G21    29.95S HX 107
JOHNS ISLAND   FAIR      93  79  62 S15       29.96S HX 110
PINOPOLIS        N/A     93  73  52 SW7       29.86F HX 102
MONCKS CORNER  FAIR      93  63  36 SW10G17   29.93F HX  94
SUMMERVILLE    NOT AVBL
BEAUFORT MCAS  MOSUNNY   99  68  36 SW10G21   29.95F HX 104
BEAUFORT ARPT  FAIR      95  73  49 S9        29.95F HX 105
HILTON HEAD IS MOSUNNY   97  77  52 S12       29.98  HX 112
WALTERBORO     PTCLDY    99  63  30 SW13G18   29.95F HX 100
ALLENDALE      MOCLDY    97  66  36 SW8G14    29.93F HX 100

...SOUTHERN MIDLANDS AND PEE DEE...

CITY           SKY/WX    TMP DP  RH WIND       PRES   REMARKS
GEORGETOWN     FAIR      91  75  59 S13G18    29.94F HX 102
KINGSTREE      FAIR      95  68  41 S9        29.92S HX  99
ORANGEBURG       N/A     97  68  38 W13       29.94F HX 102
BARNWELL       NOT AVBL
AIKEN          FAIR      93  64  38 SW16G22   29.97F HX  95
MANNING        FAIR      95  68  41 S10G16    29.92F HX  99
COLUMBIA       MOSUNNY   99  66  33 SW10G22   29.90F HX 103
SUMTER         NOT AVBL
FLORENCE       MOSUNNY   96  71  44 SW14      29.91F HX 103
MYRTLE BEACH   MOSUNNY   93  72  49 S17       29.94F HX 100
N MYRTLE BEACH SUNNY     91  77  63 SW18G24   29.92F HX 104

$$

GAZ063-065-086>088-099>101-113>116-118-119-134>141-150-282100-
...SOUTHEAST GEORGIA...

CITY           SKY/WX    TMP DP  RH WIND       PRES   REMARKS
SAVANNAH ARPT  MOSUNNY   99  66  33 SW13      29.97F HX 103
HUNTER AAF     MOSUNNY   98  73  43 W12       29.94  HX 108
FORT STEWART   NOT AVBL
STATESBORO     SUNNY     98  69  39 W10G17    29.96F HX 104
SYLVANIA       NOT AVBL
CLAXTON        FAIR      98  67  36 SW8G17    29.96F HX 103

...CSRA...CENTRAL AND FAR SOUTHEAST GEORGIA...

CITY           SKY/WX    TMP DP  RH WIND       PRES   REMARKS
THOMSON        NOT AVBL
AUGUSTA-BUSH   MOSUNNY   98  64  32 W20       29.93F HX 100
AUGUSTA-DANIEL MOSUNNY   98  66  34 SW16G23   29.95F HX 101
SWAINSBORO     FAIR      97  63  32 W13G22    29.97F HX  98
VIDALIA        SUNNY     99  63  30 W8G17     29.97F HX 100
EASTMAN        FAIR      98  38  12 W8        30.00F HX  93
HAZLEHURST     FAIR      98  67  36 W7G18     29.97F HX 102
ALMA           SUNNY     98  64  32 W8        29.98F HX 100
WAYCROSS       SUNNY    102  68  33 W13G18    29.98F HX 107
JESUP          FAIR      99  70  39 W6G17     29.98F HX 105
BAXLEY         FAIR      99  70  39 SW9G18    29.98F HX 105
BRUNSWICK      MOSUNNY   99  70  39 W9        29.98F HX 105
SAINT SIMONS   MOSUNNY   90  77  65 SE15G21   29.99F HX 103

$$

SCZ027-028-034-036>038-045-046-048>050-GAZ119-141-282100-
...LAKE AND SUPPLEMENTAL COASTAL OBSERVATIONS...

STATION/POSITION TIME  TEMP    WIND        PRES    WAVE   SWELL
                       AIR SEA DIR/SP/G            HT/PER HT/PER/DIR
                 (UTC) (F)     (DEG/KT/KT) (MB)    (FT/S) (FT/S/D)
WINYAH BAY       1900   93     230/ 11     1013.0F
LAKE MURRAY      1900   92     210/  9/ 14 1012.9F
ACE BASIN NERRS  1900   95     230/  2     1015.0S
FORT PULASKI     2000   90 88  170/  7/ 14 1015.3F
SAPELO ISLAND    2000   94     140/  9     1015.0F

$$

ANZ835-935-AMZ111-154-330-350-352-354-370-450-454-472-282100-
...C-MAN AND BUOY OBSERVATIONS...

STATION/POSITION TIME  TEMP    WIND        PRES    WAVE   SWELL
                       AIR SEA DIR/SP/G            HT/PER HT/PER/DIR
                 (UTC) (F)     (DEG/KT/KT) (MB)    (FT/S) (FT/S/D)
BUOY 41004       1950   86 87  210/ 12/ 14 1014.5F   3/ 6   2/140/ 8
BUOY 41008       1950   86 88  160/ 12/ 14 1015.6    2/ 8   2/110/ 8
FOLLY BEACH CMAN 2000   88     190/ 16/ 18 1014.9F
CAPERS NEARSHORE 2008   85 85  210/ 16/ 21 1014.1F
FRIPP NEARSHORE  2008   87 88  190/ 16/ 21 1014.2F


STATION/POSITION TIME  TEMP    WIND        PRES    WAVE   SWELL
                       AIR SEA DIR/SP/G            HT/PER HT/PER/DIR
                 (UTC) (F)     (DEG/KT/KT) (MB)    (FT/S) (FT/S/D)
5E ST. MARYS GA  2001      87                N/A     1/ 8
FRYING PAN BUOY  2000   86 85  220/ 14/ 16 1013.5F
BUOY 41025       1950   86 86  220/ 16/ 17 1011.7F   2/ 6   2/210/ 6
CAPE LOOKOUT NC  2000   88     220/ 10/ 13 1011.9F
BUOY 41002       1950   83 85  230/  8/ 10 1015.3F   3/ 6   3/250/ 6
BUOY 41010       1920   86 88  250/  6/  8 1017.7F
ST AUGUSTINE FL  2000   85 86  100/ 12/ 13 1017.2F


$$




USA.gov is the U.S. government's official web portal to all federal, state and local government web resources and services.